Location: Bathurst
(33.4193°S, 149.5775°E)
Time: 21:21:06
(UTC+10:00)

A-11 Canister half - All Passes

Search period start: 13 June 2021 00:00
Search period end: 23 June 2021 00:00
Orbit: 1513 x 1686 km, 47.2° (Epoch: 12 June)

Date Brightness Start Highest point End Pass type
(mag) Time Alt. Az. Time Alt. Az. Time Alt. Az.
13 Jun - 01:22:01 10° WSW 01:32:05 71° NW 01:42:12 10° NE night (unlit)
13 Jun - 03:29:47 10° W 03:35:56 18° WNW 03:42:04 10° NNW visible
13 Jun - 16:35:37 10° NNW 16:44:32 51° NE 16:53:47 10° ESE daylight
13 Jun - 18:40:06 10° WNW 18:49:26 59° SSW 18:59:12 10° SE visible
13 Jun - 20:47:27 10° WSW 20:56:16 36° S 21:05:22 10° ESE visible
13 Jun - 22:53:53 10° SW 23:03:28 48° SSE 23:13:14 10° E visible
14 Jun - 00:59:03 10° SW 01:09:08 75° NW 01:19:18 10° NE night (unlit)
14 Jun - 03:06:26 10° W 03:13:04 20° NW 03:19:43 10° NNW visible
14 Jun - 16:12:53 10° NNW 16:21:40 48° NE 16:30:46 10° ESE daylight
14 Jun - 18:17:06 10° WNW 18:26:28 61° SSW 18:36:14 10° SE visible
14 Jun - 20:24:24 10° WSW 20:33:12 37° S 20:42:17 10° ESE visible
14 Jun - 22:30:56 10° SW 22:40:26 47° SSE 22:50:07 10° E visible
15 Jun - 00:36:06 10° SW 00:46:12 79° NW 00:56:23 10° NE night (unlit)
15 Jun - 02:43:08 10° W 02:50:12 22° NW 02:57:18 10° N visible
15 Jun - 15:50:10 10° NNW 15:58:48 44° NE 16:07:44 10° ESE daylight
15 Jun - 17:54:07 10° WNW 18:03:29 64° SSW 18:13:16 10° SE visible
15 Jun - 20:01:20 10° WSW 20:10:07 37° S 20:19:12 10° ESE visible
15 Jun - 22:07:58 10° SW 22:17:23 45° SSE 22:27:00 10° E visible
16 Jun - 00:13:09 10° SW 00:23:15 83° NW 00:33:27 10° NE night (unlit)
16 Jun - 02:19:53 10° WSW 02:27:20 24° NW 02:34:50 10° N night (unlit)
16 Jun - 15:27:28 10° NNW 15:35:57 41° NE 15:44:41 10° ESE daylight
16 Jun - 17:31:10 10° WNW 17:40:31 67° SSW 17:50:18 10° SE visible
16 Jun - 19:38:17 10° WSW 19:47:04 37° S 19:56:08 10° ESE visible
16 Jun - 21:45:01 10° SW 21:54:20 44° SSE 22:03:52 10° E visible
16 Jun - 23:50:12 10° SW 00:00:17 87° NW 00:10:32 10° NE night (unlit)
17 Jun - 01:56:41 10° WSW 02:04:28 26° NW 02:12:17 10° N night (unlit)
17 Jun - 15:04:48 10° NNW 15:13:06 38° NE 15:21:38 10° ESE daylight
17 Jun - 17:08:12 10° WNW 17:17:33 71° SSW 17:27:20 10° SE visible
17 Jun - 19:15:14 10° WSW 19:23:59 38° S 19:33:04 10° ESE visible
17 Jun - 21:22:04 10° SW 21:31:17 42° SSE 21:40:45 10° E visible
17 Jun - 23:27:15 10° SW 23:37:19 89° SSE 23:47:34 10° NE night (unlit)
18 Jun - 01:33:31 10° WSW 01:41:36 28° NW 01:49:44 10° N night (unlit)
18 Jun - 14:42:08 10° N 14:50:15 35° NE 14:58:34 10° ESE daylight
18 Jun - 16:45:15 10° WNW 16:54:36 74° SW 17:04:22 10° SE daylight
18 Jun - 18:52:11 10° WSW 19:00:56 38° S 19:10:01 10° SE visible
18 Jun - 20:59:05 10° SW 21:08:13 41° SSE 21:17:36 10° E visible
18 Jun - 23:04:19 10° SW 23:14:22 85° SE 23:24:36 10° NE visible
19 Jun - 01:10:24 10° WSW 01:18:43 30° NW 01:27:07 10° N night (unlit)
19 Jun - 14:19:31 10° N 14:27:25 32° NE 14:35:28 10° ESE daylight
19 Jun - 16:22:19 10° WNW 16:31:40 78° SW 16:41:24 10° SE daylight
19 Jun - 18:29:07 10° W 18:37:53 39° SSW 18:46:59 10° SE visible
19 Jun - 20:36:07 10° SW 20:45:10 40° SSE 20:54:28 10° E visible
19 Jun - 22:41:24 10° SW 22:51:24 81° SE 23:01:37 10° ENE visible
20 Jun - 00:47:17 10° WSW 00:55:50 33° NW 01:04:28 10° N night (unlit)
20 Jun - 13:56:55 10° N 14:04:34 30° NE 14:12:22 10° ESE daylight
20 Jun - 15:59:23 10° NW 16:08:43 82° SW 16:18:27 10° SE daylight
20 Jun - 18:06:04 10° W 18:14:50 40° SSW 18:23:56 10° SE visible
20 Jun - 20:13:08 10° SW 20:22:06 39° SSE 20:31:21 10° E visible
20 Jun - 22:18:28 10° SW 22:28:25 77° SE 22:38:36 10° ENE visible
21 Jun - 00:24:12 10° WSW 00:32:57 35° NW 00:41:49 10° N night (unlit)
21 Jun - 13:34:21 10° N 13:41:44 27° NE 13:49:15 10° ESE daylight
21 Jun - 15:36:28 10° NW 15:45:48 86° SW 15:55:29 10° SE daylight
21 Jun - 17:43:00 10° W 17:51:48 41° SSW 18:00:55 10° SE visible
21 Jun - 19:50:09 10° SW 19:59:03 38° S 20:08:12 10° ESE visible
21 Jun - 21:55:32 10° SW 22:05:27 74° SE 22:15:36 10° ENE visible
22 Jun - 00:01:08 10° WSW 00:10:03 38° NW 00:19:06 10° NNE night (unlit)
22 Jun - 13:11:50 10° N 13:18:54 25° NE 13:26:05 10° ESE daylight
22 Jun - 15:13:34 10° NW 15:22:53 90° WSW 15:32:32 10° SE daylight
22 Jun - 17:19:57 10° W 17:28:46 42° SSW 17:37:53 10° SE visible
22 Jun - 19:27:10 10° SW 19:35:59 38° S 19:45:05 10° ESE visible
22 Jun - 21:32:36 10° SW 21:42:27 70° SSE 21:52:34 10° ENE visible
22 Jun - 23:38:06 10° WSW 23:47:10 41° NW 23:56:23 10° NNE night (unlit)
